Kincheloe, MI

9:39 PM EDT on August 25, 2016 (GMT -0400)
Chippewa County International

Weather History for KCIU - February, 2014

Change the Weather History Date:

Friday, February 21, 2014

  Actual Average Record
Temperature  
Mean Temperature 26 °F -  
Max Temperature 35 °F 32 °F 48 °F (1983)
Min Temperature 17 °F 12 °F -18 °F (1993)
Degree Days  
Heating Degree Days 39    
Moisture  
Dew Point 27 °F    
Average Humidity 96    
Maximum Humidity 100    
Minimum Humidity 86    
Precipitation  
Precipitation 0.12 in - - ()
Sea Level Pressure  
Sea Level Pressure 29.19 in    
Wind  
Wind Speed 21 mph (South)    
Max Wind Speed 34 mph    
Max Gust Speed 46 mph    
Visibility 4 miles    
Events      
Averages and records for this station are not official NWS values.
T = Trace of Precipitation, MM = Missing Value Source: NWS Daily Summary

Daily Weather History Graph

Daily Weather History Graph

Search for Another Location

Airport or City:

Trip Planner

Search our weather history database for the weather conditions in past years. The results will help you decide how hot, cold, wet, or windy it might be!

Date:

Astronomy

Feb. 21, 2014 Rise Set
Actual Time 7:31 AM EST 6:12 PM EST
Civil Twilight 7:00 AM EST 6:43 PM EST
Nautical Twilight 6:25 AM EST 7:18 PM EST
Astronomical Twilight 5:51 AM EST 7:52 PM EST
Moon 12:26 AM EST (2/21) 10:31 AM EST (2/21)
Length of Visible Light 11h 42m
Length of Day
10h 41m
Waning Gibbous, 61% of the Moon is Illuminated
Feb 21
Waning Gibbous
Feb 22
Last Quarter
Mar 1
New
Mar 8
First Quarter
Mar 16
Full

Hourly Weather History & Observations

Time (EST) Temp. Windchill Dew Point Humidity Pressure Visibility Wind Dir Wind Speed Gust Speed Precip Events Conditions
12:15 AM 33.8 °F 20.1 °F 33.8 °F 100% 29.33 in 4.0 mi ESE 29.9 mph 43.7 mph 0.01 in   Overcast
12:35 AM 33.8 °F 19.4 °F 33.8 °F 100% 29.27 in 3.0 mi East 33.4 mph 42.6 mph 0.02 in   Overcast
12:55 AM 32.0 °F 16.7 °F 32.0 °F 100% 29.26 in 7.0 mi East 34.5 mph 46.0 mph 0.02 in   Overcast
1:15 AM 33.8 °F 19.6 °F 33.8 °F 100% 29.25 in 7.0 mi ESE 32.2 mph 42.6 mph N/A   Overcast
1:35 AM 33.8 °F 20.8 °F 33.8 °F 100% 29.24 in 3.0 mi East 26.5 mph 39.1 mph N/A   Overcast
1:55 AM 33.8 °F 20.1 °F 33.8 °F 100% 29.21 in 2.5 mi ESE 29.9 mph 43.7 mph 0.01 in   Overcast
2:15 AM 33.8 °F 19.9 °F 33.8 °F 100% 29.17 in 2.0 mi East 31.1 mph 40.3 mph 0.01 in   Overcast
2:35 AM 33.8 °F 20.1 °F 33.8 °F 100% 29.16 in 2.0 mi ESE 29.9 mph 39.1 mph 0.01 in   Overcast
2:55 AM 33.8 °F 21.9 °F 33.8 °F 100% 29.15 in 2.5 mi ESE 21.9 mph 31.1 mph 0.01 in   Overcast
3:15 AM 33.8 °F 21.6 °F 32.0 °F 93% 29.15 in 3.0 mi East 23.0 mph 29.9 mph 0.01 in   Overcast
3:35 AM 33.8 °F 21.6 °F 33.8 °F 100% 29.15 in 5.0 mi ESE 23.0 mph 28.8 mph 0.01 in   Overcast
3:55 AM 33.8 °F 21.6 °F 33.8 °F 100% 29.14 in 3.0 mi ESE 23.0 mph 33.4 mph 0.02 in   Overcast
4:15 AM 35.6 °F 23.0 °F 33.8 °F 93% 29.13 in 5.0 mi ESE 27.6 mph 35.7 mph N/A   Overcast
4:35 AM 35.6 °F 23.2 °F 35.6 °F 100% 29.11 in 6.0 mi ESE 26.5 mph 36.8 mph 0.01 in   Overcast
4:55 AM 35.6 °F 24.5 °F 35.6 °F 100% 29.11 in 10.0 mi SE 20.7 mph - 0.01 in   Overcast
5:15 AM 35.6 °F 24.5 °F 33.8 °F 93% 29.11 in 10.0 mi SSE 20.7 mph 27.6 mph N/A   Overcast
5:35 AM 35.6 °F 26.2 °F 35.6 °F 100% 29.12 in 10.0 mi SSE 15.0 mph 21.9 mph N/A   Overcast
5:55 AM 35.6 °F 28.0 °F 35.6 °F 100% 29.13 in 10.0 mi SSE 10.4 mph - N/A   Overcast
6:15 AM 35.6 °F 27.5 °F 35.6 °F 100% 29.13 in 10.0 mi SSE 11.5 mph 21.9 mph N/A   Overcast
6:35 AM 35.6 °F 27.1 °F 33.8 °F 93% 29.12 in 10.0 mi SSE 12.7 mph 17.3 mph N/A   Overcast
6:55 AM 35.6 °F 27.5 °F 33.8 °F 93% 29.12 in 10.0 mi SSE 11.5 mph 17.3 mph N/A   Overcast
7:15 AM 35.6 °F 28.0 °F 33.8 °F 93% 29.12 in 10.0 mi SSE 10.4 mph - N/A   Overcast
7:35 AM 33.8 °F 26.4 °F 33.8 °F 100% 29.12 in 10.0 mi SSE 9.2 mph - 0.01 in   Overcast
7:55 AM 33.8 °F 24.3 °F 33.8 °F 100% 29.12 in 10.0 mi SSE 13.8 mph - 0.01 in   Mostly Cloudy
8:15 AM 33.8 °F 23.5 °F 33.8 °F 100% 29.12 in 10.0 mi SSE 16.1 mph 19.6 mph N/A   Overcast
8:35 AM 33.8 °F 24.3 °F 33.8 °F 100% 29.11 in 10.0 mi SSE 13.8 mph - N/A   Overcast
8:55 AM 33.8 °F 24.8 °F 33.8 °F 100% 29.10 in 10.0 mi SSE 12.7 mph - N/A   Overcast
9:15 AM 33.8 °F 25.8 °F 33.8 °F 100% 29.10 in 9.0 mi SSE 10.4 mph - 0.01 in   Overcast
9:35 AM 33.8 °F 24.8 °F 33.8 °F 100% 29.09 in 9.0 mi SSE 12.7 mph 18.4 mph 0.01 in   Overcast
9:55 AM 33.8 °F 25.8 °F 32.0 °F 93% 29.09 in 5.0 mi South 10.4 mph 24.2 mph 0.02 in   Overcast
10:15 AM 33.8 °F 25.8 °F 32.0 °F 93% 29.09 in 2.0 mi SSW 10.4 mph 16.1 mph N/A   Overcast
10:35 AM 32.0 °F 22.1 °F 30.2 °F 93% 29.10 in 1.2 mi South 13.8 mph 24.2 mph 0.01 in   Overcast
10:55 AM 30.2 °F 18.5 °F 30.2 °F 100% 29.10 in 1.0 mi SSW 17.3 mph 27.6 mph 0.01 in   Overcast
11:15 AM 30.2 °F 17.8 °F 28.4 °F 93% 29.10 in 0.5 mi SSW 19.6 mph 28.8 mph N/A   Overcast
11:35 AM 28.4 °F 16.2 °F 26.6 °F 93% 29.10 in 0.5 mi SSW 17.3 mph 38.0 mph N/A   Overcast
11:55 AM 28.4 °F 15.8 °F 26.6 °F 93% 29.11 in 0.8 mi SSW 18.4 mph 31.1 mph N/A   Overcast
12:15 PM 26.6 °F 13.8 °F 26.6 °F 100% 29.11 in 0.5 mi SSW 17.3 mph 29.9 mph N/A   Overcast
12:35 PM 26.6 °F 13.4 °F 24.8 °F 93% 29.11 in 0.8 mi SSW 18.4 mph 27.6 mph N/A   Overcast
12:55 PM 26.6 °F 13.1 °F 24.8 °F 93% 29.11 in 1.0 mi SSW 19.6 mph 34.5 mph N/A   Overcast
1:15 PM 26.6 °F 13.4 °F 24.8 °F 93% 29.12 in 0.5 mi SSW 18.4 mph 32.2 mph N/A   Overcast
1:35 PM 24.8 °F 12.9 °F 24.8 °F 100% 29.12 in 0.2 mi SSW 13.8 mph 25.3 mph N/A   Overcast
1:55 PM 24.8 °F 11.5 °F 24.8 °F 100% 29.12 in 0.2 mi SSW 17.3 mph 32.2 mph 0.01 in   Overcast
2:15 PM 24.8 °F 11.9 °F 23.0 °F 93% 29.12 in 0.5 mi SSW 16.1 mph 29.9 mph N/A   Overcast
2:35 PM 24.8 °F 12.9 °F 24.8 °F 100% 29.13 in 0.2 mi SSW 13.8 mph 29.9 mph N/A   Overcast
2:55 PM 24.8 °F 11.9 °F 23.0 °F 93% 29.13 in 0.5 mi SW 16.1 mph 28.8 mph N/A   Overcast
3:15 PM 24.8 °F 10.7 °F 21.2 °F 86% 29.14 in 0.5 mi SSW 19.6 mph 26.5 mph N/A   Overcast
3:35 PM 24.8 °F 11.5 °F 21.2 °F 86% 29.15 in 0.5 mi SSW 17.3 mph 31.1 mph N/A   Overcast
3:55 PM 24.8 °F 11.9 °F 21.2 °F 86% 29.16 in 0.5 mi SSW 16.1 mph 31.1 mph N/A   Overcast
4:15 PM 23.0 °F 9.6 °F 21.2 °F 93% 29.17 in 0.2 mi SW 16.1 mph 24.2 mph N/A   Overcast
4:35 PM 23.0 °F 9.2 °F 21.2 °F 93% 29.18 in 0.5 mi SW 17.3 mph 26.5 mph N/A   Overcast
4:55 PM 21.2 °F 6.8 °F 19.4 °F 93% 29.20 in 1.0 mi SSW 17.3 mph 26.5 mph N/A   Overcast
5:15 PM 21.2 °F 6.4 °F 19.4 °F 93% 29.21 in 0.5 mi SW 18.4 mph 28.8 mph N/A   Overcast
5:35 PM 21.2 °F 7.8 °F 19.4 °F 93% 29.22 in 0.2 mi SW 15.0 mph 24.2 mph N/A   Overcast
5:55 PM 21.2 °F 8.9 °F 19.4 °F 93% 29.23 in 1.0 mi SW 12.7 mph 28.8 mph N/A   Overcast
6:15 PM 19.4 °F 5.0 °F 19.4 °F 100% 29.24 in 0.8 mi SW 16.1 mph 27.6 mph N/A   Overcast
6:35 PM 19.4 °F 6.6 °F 19.4 °F 100% 29.26 in 1.2 mi SW 12.7 mph 23.0 mph N/A   Overcast
6:55 PM 19.4 °F 6.6 °F 19.4 °F 100% 29.27 in 1.8 mi SW 12.7 mph 24.2 mph N/A   Overcast
7:15 PM 19.4 °F 6.6 °F 19.4 °F 100% 29.28 in 2.5 mi WSW 12.7 mph 20.7 mph N/A   Overcast
7:35 PM 19.4 °F 5.5 °F 19.4 °F 100% 29.29 in 1.8 mi SW 15.0 mph 23.0 mph N/A   Overcast
7:55 PM 21.2 °F 6.8 °F 19.4 °F 93% 29.29 in 5.0 mi SW 17.3 mph 23.0 mph N/A   Overcast
8:15 PM 21.2 °F 7.8 °F 19.4 °F 93% 29.30 in 5.0 mi SW 15.0 mph 23.0 mph N/A   Overcast
8:35 PM 21.2 °F 7.8 °F 19.4 °F 93% 29.31 in 5.0 mi SW 15.0 mph 23.0 mph N/A   Overcast
8:55 PM 21.2 °F 10.1 °F 19.4 °F 93% 29.31 in 4.0 mi SW 10.4 mph 19.6 mph N/A   Overcast
9:15 PM 21.2 °F 6.8 °F 19.4 °F 93% 29.32 in 1.8 mi SW 17.3 mph 24.2 mph N/A   Overcast
9:35 PM 19.4 °F 7.2 °F 19.4 °F 100% 29.33 in 1.8 mi SW 11.5 mph 23.0 mph N/A   Overcast
9:55 PM 19.4 °F 6.6 °F 19.4 °F 100% 29.33 in 1.5 mi SW 12.7 mph 24.2 mph N/A   Overcast
10:15 PM 19.4 °F 6.6 °F 17.6 °F 93% 29.35 in 1.8 mi SW 12.7 mph 24.2 mph N/A   Overcast
10:35 PM 19.4 °F 6.6 °F 17.6 °F 93% 29.35 in 2.5 mi SW 12.7 mph 27.6 mph N/A   Overcast
10:55 PM 17.6 °F 5.0 °F 15.8 °F 93% 29.36 in 5.0 mi SW 11.5 mph 18.4 mph N/A   Overcast
11:15 PM 17.6 °F 2.7 °F 15.8 °F 93% 29.37 in 4.0 mi SW 16.1 mph 26.5 mph N/A   Overcast
11:35 PM 17.6 °F 4.3 °F 15.8 °F 93% 29.38 in 5.0 mi WSW 12.7 mph 25.3 mph N/A   Overcast
11:55 PM 17.6 °F 5.7 °F 14.0 °F 86% 29.39 in 6.0 mi SW 10.4 mph 24.2 mph N/A   Overcast